Location: Avon School (historical)
(37.7514°N, 90.2201°W)
Time: 03:35:43
(UTC+00:00)

Explorer 7 - Pass Details

Date: 16 November 2024
Orbit: 456 x 598 km, 50.3° (Epoch: 03 December)

Event Time Altitude Azimuth Distance (km) Brightness Sun altitude
Exits shadow 10:35:35 13° 13° (NNE) 1,602 9.2 -25.1°
Drops below altitude 10° 10:36:52 10° 30° (NNE) 1,829 9.7 -24.8°
Sets 10:40:04 0° 54° (NE) 2,759 11.1 -24.2°
